(512) Taurinensis
ephemeris date magn radius delta ra dec elong phase
Opposition30 May 202613.32.216 AU1.211 AU16h37m-12°04'170.1°4.5°
Today14 Jun 202613.42.174 AU1.189 AU16h20m-12°24'160.6°8.9°
(512) Taurinensis - 2026-06-14
astro.vanbuitenen.nl


 
-1 year
-1 month
-1 day
Now
+1 day
+1 month
+1 year

The interactive orbit chart above shows the body's path through the solar system and its position at the given date. Green and blue lines are shown perpendicular to the ecliptic plane: Green if the path is above the ecliptic plane, blue if it is below. (Left-click and drag to rotate the view; Right-click and drag to move the view; Use scroll wheel to zoom in our out.)

The orbital elements of Taurinensis are:

            e (Eccentricity)                : 0.2542671
            a (Semimajor axis)              : 2.1892955
            i (Inclination)                 : 8.74981
            Ω (Longitude of ascending node) : 106.99454
            ω (Argument of perihelion)      : 249.22080
            M (Mean anomaly)                : 284.65320
            Epoch                           : 2026 Jun 09

            L (Longitude of perihelion)     : 175.99189
            B (Latitude of perihelion)      : -8.17664
            P (Orbital period in years)     : 3.24            
        

The light curve chart below shows the estimated development of the minor planet's magnitude.


The all-sky chart below shows the path of the minor planet over the same period as the light curve. The current position is marked yellow.





The following chart shows the path of the minor planet in the next few days. The field of view is optimized for (~10x50) binoculars and finderscopes.




Ephemerides:
Date       Time       RA (2000)    DEC (2000)    delta   radius  elong  phase   PA    magn
2026-06-14 00:00 UT   16 20 15.4   -12 24 10     1.189    2.174  160.6    8.9   126   13.4 
2026-06-14 08:06 UT   16 19 52.6   -12 24 57     1.189    2.173  160.3    9.1   126   13.4 
2026-06-15 00:00 UT   16 19 08.3   -12 26 32     1.190    2.171  159.6    9.4   125   13.4 
2026-06-16 00:00 UT   16 18 02.2   -12 29 00     1.190    2.168  158.5    9.9   123   13.5 
2026-06-17 00:00 UT   16 16 57.0   -12 31 37     1.191    2.165  157.5   10.4   122   13.5 
2026-06-18 00:00 UT   16 15 53.0   -12 34 21     1.192    2.162  156.4   10.9   120   13.5 
2026-06-19 00:00 UT   16 14 50.2   -12 37 14     1.194    2.159  155.3   11.4   119   13.5 
2026-06-20 00:00 UT   16 13 48.5   -12 40 13     1.195    2.156  154.2   11.8   118   13.5 
2026-06-21 00:00 UT   16 12 48.3   -12 43 21     1.197    2.153  153.1   12.3   117   13.6 
2026-06-22 00:00 UT   16 11 49.4   -12 46 37     1.199    2.150  152.0   12.8   116   13.6 
2026-06-23 00:00 UT   16 10 52.0   -12 49 60     1.201    2.147  150.9   13.3   115   13.6 
2026-06-24 00:00 UT   16 09 56.1   -12 53 31     1.203    2.144  149.8   13.8   115   13.6 
2026-06-25 00:00 UT   16 09 01.7   -12 57 09     1.206    2.141  148.7   14.3   114   13.6 
2026-06-26 00:00 UT   16 08 09.1   -13 00 55     1.209    2.138  147.6   14.8   113   13.6 
2026-06-27 00:00 UT   16 07 18.1   -13 04 48     1.212    2.135  146.5   15.2   113   13.7 
2026-06-28 00:00 UT   16 06 28.9   -13 08 49     1.215    2.132  145.4   15.7   112   13.7 
2026-06-29 00:00 UT   16 05 41.4   -13 12 57     1.218    2.129  144.4   16.2   112   13.7 
2026-06-30 00:00 UT   16 04 55.8   -13 17 12     1.222    2.126  143.3   16.6   111   13.7 
2026-07-01 00:00 UT   16 04 12.1   -13 21 35     1.226    2.123  142.2   17.1   111   13.7 
2026-07-02 00:00 UT   16 03 30.3   -13 26 04     1.230    2.120  141.2   17.5   110   13.8 
2026-07-03 00:00 UT   16 02 50.4   -13 30 41     1.234    2.117  140.1   17.9   110   13.8 
2026-07-04 00:00 UT   16 02 12.5   -13 35 24     1.238    2.113  139.0   18.4   109   13.8 
2026-07-05 00:00 UT   16 01 36.6   -13 40 15     1.242    2.110  138.0   18.8   109   13.8 
2026-07-06 00:00 UT   16 01 02.8   -13 45 12     1.247    2.107  136.9   19.2   109   13.8 
2026-07-07 00:00 UT   16 00 31.0   -13 50 15     1.252    2.104  135.9   19.6   108   13.9 
2026-07-08 00:00 UT   16 00 01.4   -13 55 26     1.257    2.101  134.9   20.0   108   13.9 
2026-07-09 00:00 UT   15 59 33.8   -14 00 42     1.262    2.098  133.9   20.4   108   13.9 
2026-07-10 00:00 UT   15 59 08.4   -14 06 06     1.267    2.095  132.9   20.8   107   13.9 
2026-07-11 00:00 UT   15 58 45.2   -14 11 35     1.272    2.092  131.8   21.2   107   13.9 
2026-07-12 00:00 UT   15 58 24.1   -14 17 11     1.278    2.089  130.8   21.6   107   13.9 
2026-07-13 00:00 UT   15 58 05.2   -14 22 52     1.283    2.086  129.9   22.0   107   14.0 
2026-07-14 00:00 UT   15 57 48.6   -14 28 40     1.289    2.083  128.9   22.3   106   14.0 


    Terminology:
            
    delta:  distance between minor planet and earth in AU
    radius: distance between minor planet and sun in AU
    magn:   magnitude (brightness) estimate    
    ra:     right ascension in hours (24h = 360deg)
    dec:    declination in degrees
    elong:  elongation in degrees (angle sun-earth-minor planet)    
    phase:  phase angle in degrees (angle sun-minor planet-earth)        
    AU:     Astronomical Unit (mean distance between earth and sun: 149597870.7 km
    

Orbital elements provided by the MPC (Minor Planet Center).
Calculations by a modified version of AAPlus, a C# implementation of the AA+ project by PJ Naughter from the algorithms presented in the book "Astronomical Algorithms" by Jean Meeus.
NGC2000 dso catalog and star labels from VizieR as provided by the Strasbourg astronomical Data Center.
Tycho2 catalog from the ESO archive.